Location: El Castaño
(10.3135°N, 67.5574°W)
Time: 03:53:34
(UTC+00:00)

Nadezhda 4 Rocket - Pass Details

Date: 13 June 2024
Orbit: 949 x 992 km, 82.9° (Epoch: 19 July)

Event Time Altitude Azimuth Distance (km) Brightness Sun altitude
Rises 23:22:31 0° 176° (S) 3,646 6.7 -7.6°
Reaches altitude 10° 23:25:02 10° 173° (S) 2,705 6.0 -8.2°
Maximum altitude 23:31:09 64° 92° (E) 1,077 4.0 -9.5°
Drops below altitude 10° 23:37:20 10° 12° (NNE) 2,732 6.5 -10.9°
Sets 23:39:53 0° 10° (N) 3,685 7.3 -11.4°
